Weather History for Springfield, MO

Change the Weather History Date:

Thursday, April 25, 2013

  Actual Average Record
Temperature  
Mean Temperature 49 °F 59 °F  
Max Temperature 66 °F 70 °F 85 °F (1984)
Min Temperature 31 °F 48 °F 29 °F (1910)
Degree Days  
Heating Degree Days 16 7  
Month to date heating degree days 306 268  
Since 1 July heating degree days 4321 4442  
Cooling Degree Days 0 1  
Month to date cooling degree days 9 18  
Year to date cooling degree days 9 21  
Growing Degree Days 0 (Base 50)    
Moisture  
Dew Point 32 °F    
Average Humidity 55    
Maximum Humidity 82    
Minimum Humidity 28    
Precipitation  
Precipitation T in 0.16 in 2.31 in (2011)
Month to date precipitation 3.72 3.48  
Year to date precipitation 13.83 12.09  
Snow  
Snow 0.00 in - - ()
Month to date snowfall T  
Since 1 July snowfall 11.3  
Snow Depth 0.00 in    
Sea Level Pressure  
Sea Level Pressure 30.30 in    
Wind  
Wind Speed 7 mph (SSW)    
Max Wind Speed 16 mph    
Max Gust Speed 22 mph    
Visibility 10 miles    
Events Rain    
T = Trace of Precipitation, MM = Missing Value Source: NWS Daily Summary

Daily Weather History Graph

Daily Weather History Graph

Search for Another Location

Airport:

Trip Planner

Search our weather history database for the weather conditions in past years. The results will help you decide how hot, cold, wet, or windy it might be!

Date:

Astronomy

Apr. 25, 2013 Rise Set
Actual Time 6:25 AM CDT 7:57 PM CDT
Civil Twilight 5:58 AM CDT 8:25 PM CDT
Nautical Twilight 5:24 AM CDT 8:58 PM CDT
Astronomical Twilight 4:50 AM CDT 9:33 PM CDT
Moon 8:11 PM CDT (4/25) 6:08 AM CDT (4/25)
Length of Visible Light 14h 27m
Length of Day
13h 32m
Full, 100% of the Moon is Illuminated
Apr 25
Full
Apr 25
Full
May 2
Last Quarter
May 9
New
May 17
First Quarter

Hourly Weather History & Observations

Time (CDT) Temp. Windchill Dew Point Humidity Pressure Visibility Wind Dir Wind Speed Gust Speed Precip Events Conditions
12:52 AM 34.0 °F 27.2 °F 27.0 °F 75% 30.31 in 10.0 mi South 8.1 mph - N/A   Clear
1:52 AM 34.0 °F 28.0 °F 28.0 °F 79% 30.30 in 10.0 mi South 6.9 mph - N/A   Clear
2:52 AM 35.1 °F 30.1 °F 28.0 °F 76% 30.29 in 10.0 mi South 5.8 mph - N/A   Clear
3:52 AM 33.1 °F 26.9 °F 27.0 °F 78% 30.30 in 10.0 mi South 6.9 mph - N/A   Clear
4:52 AM 34.0 °F 28.8 °F 27.0 °F 75% 30.31 in 10.0 mi SSW 5.8 mph - N/A   Clear
5:52 AM 33.1 °F 27.7 °F 27.0 °F 78% 30.32 in 10.0 mi South 5.8 mph - N/A   Clear
6:52 AM 32.0 °F 26.4 °F 27.0 °F 82% 30.33 in 10.0 mi South 5.8 mph - N/A   Clear
7:52 AM 39.9 °F 36.7 °F 30.0 °F 68% 30.35 in 10.0 mi SSW 4.6 mph - N/A   Clear
8:52 AM 50.0 °F - 32.0 °F 50% 30.37 in 10.0 mi West 6.9 mph - N/A   Clear
9:52 AM 54.0 °F - 32.0 °F 43% 30.37 in 10.0 mi West 10.4 mph - N/A   Clear
10:52 AM 57.0 °F - 33.1 °F 40% 30.37 in 10.0 mi WSW 9.2 mph - N/A   Clear
11:52 AM 60.1 °F - 33.1 °F 36% 30.37 in 10.0 mi West 8.1 mph - N/A   Clear
12:52 PM 62.1 °F - 33.1 °F 34% 30.35 in 10.0 mi WNW 6.9 mph - N/A   Clear
1:52 PM 64.0 °F - 35.1 °F 34% 30.32 in 10.0 mi NNW 4.6 mph - N/A   Clear
2:52 PM 64.9 °F - 34.0 °F 32% 30.30 in 10.0 mi North - - N/A   Clear
3:52 PM 66.0 °F - 35.1 °F 32% 30.29 in 10.0 mi West 4.6 mph - N/A   Clear
4:52 PM 66.0 °F - 35.1 °F 32% 30.27 in 10.0 mi Variable 5.8 mph - N/A   Clear
5:52 PM 64.9 °F - 32.0 °F 29% 30.26 in 10.0 mi Calm Calm - N/A   Clear
6:52 PM 64.9 °F - 30.9 °F 28% 30.25 in 10.0 mi Calm Calm - N/A   Clear
7:52 PM 60.1 °F - 37.0 °F 42% 30.24 in 10.0 mi East 3.5 mph - N/A   Clear
8:52 PM 59.0 °F - 37.0 °F 44% 30.22 in 10.0 mi ESE 3.5 mph - N/A   Clear
9:52 PM 55.9 °F - 37.9 °F 51% 30.24 in 10.0 mi SE 6.9 mph - N/A   Clear
10:52 PM 59.0 °F - 34.0 °F 39% 30.22 in 10.0 mi SSE 10.4 mph - N/A   Partly Cloudy
11:52 PM 59.0 °F - 35.1 °F 41% 30.21 in 10.0 mi SSE 12.7 mph - 0.00 in Rain Light Rain